Home   Weather   Chatham   Past weeks
Flag for United Kingdom

Past Weather in Chatham, England, United Kingdom — Yesterday and Last 2 Weeks

Now
45 °F

Clear.


Feels Like: 41 °F
Forecast: N/A
Wind: 6 mph from East

Location: Southend Airport-On-Sea

Current Time: Mar 23, 2019 at 7:03:08 pm

Latest Report: Mar 23, 2019 at 6:20 pm


Visibility: 10 mi

Pressure: 30.51 "Hg

Humidity: 76%

Dew Point: 37 °F

Location of ChathamLocation

Past Weather in Chatham — Graph

°F

Chatham Temperature Yesterday

Maximum temperature yesterday: 52 °F (at 1:20 pm)
Minimum temperature yesterday: 46 °F (at 5:50 am)
Average temperature yesterday: 49 °F

High & Low Weather Summary for the Past Weeks

 TemperatureHumidityPressure
High59 °F (Mar 15, 10:50 am)93% (Mar 10, 8:50 pm)30.54 "Hg (Mar 10, 8:50 pm)
Low36 °F (Mar 10, 7:50 pm)32% (Mar 10, 4:20 pm)29.39 "Hg (Mar 16, 8:20 pm)
Average48 °F73%29.99 "Hg
* Reported Mar 8 5:20 pm — Mar 23 5:50 pm, Chatham. Weather by CustomWeather, © 2019

Note: Actual official high and low records may vary slightly from our data, if they occured in-between our weather recording intervals... More about our weather records

Advertising

Chatham Weather History for the Previous 24 Hours

Scroll right to see more
 ConditionsComfort  
Time TempWeatherWind HumidityBarometerVisibility
5:50 pm
Sat, Mar 23
46 °FPassing clouds.7 mph71%30.48 "HgN/A
5:20 pm46 °FPassing clouds.10 mph71%30.48 "HgN/A
4:50 pm46 °FPassing clouds.10 mph71%30.48 "HgN/A
4:20 pm50 °FPassing clouds.10 mph67%30.48 "HgN/A
3:50 pm52 °FPassing clouds.10 mph62%30.48 "HgN/A
3:20 pm55 °FPassing clouds.9 mph67%30.48 "HgN/A
2:50 pm50 °FScattered clouds.9 mph76%30.48 "HgN/A
2:20 pm50 °FPartly sunny.8 mph76%30.48 "HgN/A
1:50 pm50 °FPartly sunny.7 mph76%30.48 "HgN/A
1:20 pm50 °FBroken clouds.7 mph76%30.48 "HgN/A
12:50 pm52 °FPartly sunny.8 mph72%30.48 "HgN/A
11:50 am52 °FPartly sunny.8 mph72%30.48 "HgN/A
11:20 am52 °FPartly sunny.10 mph72%30.48 "HgN/A
10:50 am52 °FPartly sunny.12 mph72%30.48 "HgN/A
10:20 am52 °FPartly sunny.14 mph72%30.48 "HgN/A
9:50 am52 °FPartly sunny.10 mph72%30.48 "HgN/A
9:20 am50 °FPartly sunny.8 mph76%30.45 "HgN/A
8:50 am48 °FPartly sunny.7 mph82%30.45 "HgN/A
8:20 am48 °FPartly sunny.7 mph82%30.45 "HgN/A
7:50 am48 °FPartly sunny.7 mph87%30.45 "HgN/A
7:20 am48 °FPartly sunny.7 mph87%30.42 "HgN/A
6:50 am48 °FOvercast.6 mph87%30.42 "Hg6 mi
6:20 am48 °FMostly cloudy.7 mph87%30.42 "Hg6 mi
5:50 am46 °FPassing clouds.7 mph87%30.39 "Hg6 mi
5:20 am46 °FPassing clouds.8 mph87%30.39 "HgN/A
10:50 pm
Fri, Mar 22
46 °FPassing clouds.7 mph87%30.36 "HgN/A
10:20 pm46 °FPassing clouds.7 mph82%30.36 "HgN/A
9:50 pm48 °FPassing clouds.6 mph76%30.36 "HgN/A
9:20 pm50 °FPassing clouds.3 mph76%30.36 "HgN/A
8:50 pm50 °FPassing clouds.3 mph82%30.36 "HgN/A
8:20 pm50 °FPassing clouds.5 mph82%30.36 "HgN/A
7:50 pm50 °FPassing clouds.5 mph76%30.36 "HgN/A
7:20 pm52 °FPassing clouds.7 mph77%30.36 "HgN/A
Weather by CustomWeather, © 2019

See weather overview